Time,TemperatureF,DewpointF,PressureIn,WindDirection,WindDirectionDegrees,WindSpeedMPH,WindSpeedGustMPH,Humidity,HourlyPrecipIn,Conditions,Clouds,dailyrainin,SoftwareType,DateUTC
2013-01-31 00:08:00,24.7,19.0,30.06,West,267,15.0,17.0,80,0.00,,,0.00,weatherlink.com 1.10,2013-01-31 06:08:00,
2013-01-31 00:23:00,24.8,19.0,30.06,West,265,14.0,19.0,80,0.00,,,0.00,weatherlink.com 1.10,2013-01-31 06:23:00,
2013-01-31 00:38:00,24.9,20.0,30.06,West,269,10.0,17.0,80,0.00,,,0.00,weatherlink.com 1.10,2013-01-31 06:38:00,
2013-01-31 00:53:00,24.8,19.0,30.06,North,5,3.0,14.0,80,0.00,,,0.00,weatherlink.com 1.10,2013-01-31 06:53:00,
2013-01-31 01:08:00,24.9,20.0,30.05,West,263,16.0,19.0,80,0.00,,,0.00,weatherlink.com 1.10,2013-01-31 07:08:00,
2013-01-31 01:23:00,24.7,20.0,30.05,WSW,257,7.0,15.0,81,0.00,,,0.00,weatherlink.com 1.10,2013-01-31 07:23:00,
2013-01-31 01:38:00,24.3,19.0,30.05,WNW,288,7.0,16.0,81,0.00,,,0.00,weatherlink.com 1.10,2013-01-31 07:38:00,
2013-01-31 01:53:00,24.0,19.0,30.04,West,269,14.0,14.0,82,0.00,,,0.00,weatherlink.com 1.10,2013-01-31 07:53:00,
2013-01-31 02:08:00,23.5,19.0,30.04,WSW,248,3.0,11.0,82,0.00,,,0.00,weatherlink.com 1.10,2013-01-31 08:08:00,
2013-01-31 02:23:00,23.1,19.0,30.04,WSW,251,4.0,10.0,83,0.00,,,0.00,weatherlink.com 1.10,2013-01-31 08:23:00,
2013-01-31 02:38:00,22.8,19.0,30.04,WSW,252,3.0,8.0,84,0.00,,,0.00,weatherlink.com 1.10,2013-01-31 08:38:00,
2013-01-31 02:53:00,22.6,19.0,30.04,WSW,250,3.0,7.0,84,0.00,,,0.00,weatherlink.com 1.10,2013-01-31 08:53:00,
2013-01-31 03:08:00,22.4,18.0,30.05,WSW,257,1.0,7.0,84,0.00,,,0.00,weatherlink.com 1.10,2013-01-31 09:08:00,
2013-01-31 03:23:00,22.2,18.0,30.05,WSW,253,4.0,8.0,85,0.00,,,0.00,weatherlink.com 1.10,2013-01-31 09:23:00,
2013-01-31 03:38:00,22.1,19.0,30.05,West,271,7.0,8.0,86,0.00,,,0.00,weatherlink.com 1.10,2013-01-31 09:38:00,
2013-01-31 03:53:00,22.0,19.0,30.05,SW,219,7.0,8.0,86,0.00,,,0.00,weatherlink.com 1.10,2013-01-31 09:53:00,
2013-01-31 04:08:00,21.9,18.0,30.05,SW,225,7.0,9.0,86,0.00,,,0.00,weatherlink.com 1.10,2013-01-31 10:08:00,
2013-01-31 04:23:00,21.7,18.0,30.05,WSW,240,6.0,8.0,87,0.00,,,0.00,weatherlink.com 1.10,2013-01-31 10:23:00,
2013-01-31 04:38:00,21.4,18.0,30.06,WSW,252,2.0,7.0,87,0.00,,,0.00,weatherlink.com 1.10,2013-01-31 10:38:00,
2013-01-31 04:53:00,21.3,18.0,30.06,SW,235,1.0,5.0,87,0.00,,,0.00,weatherlink.com 1.10,2013-01-31 10:53:00,
2013-01-31 05:08:00,21.1,18.0,30.07,SW,232,6.0,7.0,88,0.00,,,0.00,weatherlink.com 1.10,2013-01-31 11:08:00,
2013-01-31 05:23:00,20.9,18.0,30.06,SW,214,4.0,5.0,89,0.00,,,0.00,weatherlink.com 1.10,2013-01-31 11:23:00,
2013-01-31 05:38:00,20.4,18.0,30.05,SSW,209,3.0,5.0,90,0.00,,,0.00,weatherlink.com 1.10,2013-01-31 11:38:00,
2013-01-31 05:53:00,20.2,18.0,30.05,SW,221,5.0,7.0,91,0.00,,,0.00,weatherlink.com 1.10,2013-01-31 11:53:00,
2013-01-31 06:08:00,20.3,18.0,30.05,SW,217,6.0,10.0,91,0.00,,,0.00,weatherlink.com 1.10,2013-01-31 12:08:00,
2013-01-31 06:23:00,20.6,18.0,30.05,SSW,211,8.0,11.0,91,0.00,,,0.00,weatherlink.com 1.10,2013-01-31 12:23:00,
2013-01-31 06:38:00,20.9,19.0,30.05,West,262,5.0,11.0,90,0.00,,,0.00,weatherlink.com 1.10,2013-01-31 12:38:00,
2013-01-31 06:53:00,20.8,18.0,30.06,WSW,242,6.0,11.0,90,0.00,,,0.00,weatherlink.com 1.10,2013-01-31 12:53:00,
2013-01-31 07:08:00,21.0,18.0,30.07,SW,234,3.0,8.0,89,0.00,,,0.00,weatherlink.com 1.10,2013-01-31 13:08:00,
2013-01-31 07:23:00,21.0,18.0,30.07,SW,224,6.0,7.0,89,0.00,,,0.00,weatherlink.com 1.10,2013-01-31 13:23:00,
2013-01-31 07:38:00,21.2,19.0,30.07,SW,217,3.0,8.0,89,0.00,,,0.00,weatherlink.com 1.10,2013-01-31 13:38:00,
2013-01-31 07:53:00,21.8,19.0,30.07,SW,215,7.0,7.0,90,0.00,,,0.00,weatherlink.com 1.10,2013-01-31 13:53:00,
2013-01-31 08:08:00,22.8,20.0,30.08,South,191,3.0,9.0,89,0.00,,,0.00,weatherlink.com 1.10,2013-01-31 14:08:00,
2013-01-31 08:23:00,24.7,21.0,30.09,SSW,210,4.0,9.0,87,0.00,,,0.00,weatherlink.com 1.10,2013-01-31 14:23:00,
2013-01-31 08:39:00,25.5,22.0,30.10,SSW,211,5.0,11.0,85,0.00,,,0.00,weatherlink.com 1.10,2013-01-31 14:39:00,
2013-01-31 08:54:00,27.0,23.0,30.12,WSW,257,6.0,12.0,83,0.00,,,0.00,weatherlink.com 1.10,2013-01-31 14:54:00,
2013-01-31 09:09:00,28.3,23.0,30.12,SSW,207,4.0,12.0,80,0.00,,,0.00,weatherlink.com 1.10,2013-01-31 15:09:00,
2013-01-31 09:24:00,30.1,24.0,30.13,WSW,249,14.0,14.0,79,0.00,,,0.00,weatherlink.com 1.10,2013-01-31 15:24:00,
2013-01-31 09:39:00,31.8,25.0,30.14,West,274,5.0,18.0,76,0.00,,,0.00,weatherlink.com 1.10,2013-01-31 15:39:00,
2013-01-31 09:54:00,33.1,25.0,30.12,West,272,7.0,17.0,73,0.00,,,0.00,weatherlink.com 1.10,2013-01-31 15:54:00,
2013-01-31 10:09:00,33.6,25.0,30.13,NW,304,9.0,18.0,70,0.00,,,0.00,weatherlink.com 1.10,2013-01-31 16:09:00,
2013-01-31 10:24:00,34.2,26.0,30.14,West,267,10.0,15.0,71,0.00,,,0.00,weatherlink.com 1.10,2013-01-31 16:24:00,
2013-01-31 10:39:00,33.7,25.0,30.14,WNW,302,10.0,18.0,70,0.00,,,0.00,weatherlink.com 1.10,2013-01-31 16:39:00,
2013-01-31 10:54:00,34.1,26.0,30.14,WSW,255,13.0,16.0,71,0.00,,,0.00,weatherlink.com 1.10,2013-01-31 16:54:00,
2013-01-31 11:09:00,34.4,25.0,30.15,NW,307,10.0,17.0,68,0.00,,,0.00,weatherlink.com 1.10,2013-01-31 17:09:00,
2013-01-31 11:24:00,34.2,26.0,30.15,West,277,10.0,12.0,73,0.00,,,0.00,weatherlink.com 1.10,2013-01-31 17:24:00,
2013-01-31 11:39:00,34.3,26.0,30.15,NW,306,8.0,13.0,71,0.00,,,0.00,weatherlink.com 1.10,2013-01-31 17:39:00,
2013-01-31 11:54:00,34.7,25.0,30.15,NW,304,11.0,15.0,69,0.00,,,0.00,weatherlink.com 1.10,2013-01-31 17:54:00,
2013-01-31 12:09:00,35.5,26.0,30.16,West,271,12.0,18.0,69,0.00,,,0.00,weatherlink.com 1.10,2013-01-31 18:09:00,
2013-01-31 12:24:00,34.8,26.0,30.17,West,279,16.0,20.0,71,0.00,,,0.00,weatherlink.com 1.10,2013-01-31 18:24:00,
2013-01-31 12:39:00,34.6,26.0,30.17,NW,305,19.0,21.0,70,0.00,,,0.00,weatherlink.com 1.10,2013-01-31 18:39:00,
2013-01-31 12:54:00,34.4,26.0,30.18,NW,313,17.0,20.0,70,0.00,,,0.00,weatherlink.com 1.10,2013-01-31 18:54:00,
2013-01-31 13:09:00,33.6,26.0,30.18,NW,306,14.0,19.0,75,0.00,,,0.00,weatherlink.com 1.10,2013-01-31 19:09:00,
2013-01-31 13:25:00,31.9,27.0,30.19,NW,306,14.0,22.0,82,0.00,,,0.00,weatherlink.com 1.10,2013-01-31 19:25:00,
2013-01-31 13:39:00,29.3,27.0,30.20,NW,311,17.0,25.0,91,0.00,,,0.00,weatherlink.com 1.10,2013-01-31 19:39:00,
2013-01-31 13:54:00,29.0,27.0,30.21,NW,322,10.0,23.0,93,0.00,,,0.00,weatherlink.com 1.10,2013-01-31 19:54:00,
2013-01-31 14:09:00,28.5,27.0,30.23,WNW,300,15.0,20.0,94,0.00,,,0.00,weatherlink.com 1.10,2013-01-31 20:09:00,
2013-01-31 14:24:00,26.7,25.0,30.23,West,281,16.0,25.0,94,0.00,,,0.00,weatherlink.com 1.10,2013-01-31 20:24:00,
2013-01-31 14:39:00,25.7,24.0,30.23,NW,307,20.0,28.0,94,0.00,,,0.00,weatherlink.com 1.10,2013-01-31 20:39:00,
2013-01-31 14:54:00,25.4,24.0,30.24,NNW,327,14.0,24.0,94,0.00,,,0.00,weatherlink.com 1.10,2013-01-31 20:54:00,
2013-01-31 15:09:00,24.8,23.0,30.25,NW,314,25.0,25.0,93,0.00,,,0.00,weatherlink.com 1.10,2013-01-31 21:09:00,
2013-01-31 15:24:00,24.9,24.0,30.25,WNW,301,8.0,20.0,94,0.00,,,0.00,weatherlink.com 1.10,2013-01-31 21:24:00,
2013-01-31 15:39:00,23.7,22.0,30.25,WNW,295,17.0,26.0,93,0.00,,,0.00,weatherlink.com 1.10,2013-01-31 21:39:00,
2013-01-31 15:55:00,23.5,21.0,30.26,NW,306,18.0,27.0,90,0.00,,,0.00,weatherlink.com 1.10,2013-01-31 21:55:00,
2013-01-31 16:10:00,23.1,20.0,30.27,NW,323,20.0,23.0,86,0.00,,,0.00,weatherlink.com 1.10,2013-01-31 22:10:00,
2013-01-31 16:25:00,23.0,19.0,30.27,NNW,344,10.0,18.0,86,0.00,,,0.00,weatherlink.com 1.10,2013-01-31 22:25:00,
2013-01-31 16:40:00,22.6,17.0,30.28,NW,306,18.0,25.0,79,0.00,,,0.00,weatherlink.com 1.10,2013-01-31 22:40:00,
2013-01-31 16:55:00,22.1,14.0,30.28,WNW,294,15.0,24.0,70,0.00,,,0.00,weatherlink.com 1.10,2013-01-31 22:55:00,
2013-01-31 17:10:00,21.5,12.0,30.31,NW,307,18.0,22.0,66,0.00,,,0.00,weatherlink.com 1.10,2013-01-31 23:10:00,
2013-01-31 17:25:00,21.1,12.0,30.31,NW,311,9.0,18.0,67,0.00,,,0.00,weatherlink.com 1.10,2013-01-31 23:25:00,
2013-01-31 17:40:00,20.4,12.0,30.32,NW,305,6.0,17.0,69,0.00,,,0.00,weatherlink.com 1.10,2013-01-31 23:40:00,
2013-01-31 17:55:00,20.0,11.0,30.34,NW,312,14.0,15.0,68,0.00,,,0.00,weatherlink.com 1.10,2013-01-31 23:55:00,
2013-01-31 18:10:00,19.5,11.0,30.34,NW,313,10.0,14.0,68,0.00,,,0.00,weatherlink.com 1.10,2013-02-01 00:10:00,
2013-01-31 18:25:00,19.3,10.0,30.35,NW,311,13.0,20.0,66,0.00,,,0.00,weatherlink.com 1.10,2013-02-01 00:25:00,
2013-01-31 18:40:00,18.9,10.0,30.35,NW,326,13.0,17.0,67,0.00,,,0.00,weatherlink.com 1.10,2013-02-01 00:40:00,
2013-01-31 18:55:00,18.8,9.0,30.36,WNW,300,6.0,15.0,67,0.00,,,0.00,weatherlink.com 1.10,2013-02-01 00:55:00,
2013-01-31 19:10:00,18.5,10.0,30.36,NW,313,7.0,14.0,69,0.00,,,0.00,weatherlink.com 1.10,2013-02-01 01:10:00,
2013-01-31 19:25:00,18.0,10.0,30.38,WNW,297,9.0,11.0,70,0.00,,,0.00,weatherlink.com 1.10,2013-02-01 01:25:00,
2013-01-31 19:40:00,17.6,10.0,30.38,NW,309,7.0,11.0,72,0.00,,,0.00,weatherlink.com 1.10,2013-02-01 01:40:00,
2013-01-31 19:55:00,17.5,10.0,30.39,NNW,336,8.0,13.0,72,0.00,,,0.00,weatherlink.com 1.10,2013-02-01 01:55:00,
2013-01-31 20:10:00,17.2,10.0,30.41,NW,307,9.0,14.0,72,0.00,,,0.00,weatherlink.com 1.10,2013-02-01 02:10:00,
2013-01-31 20:25:00,16.9,8.0,30.42,NW,318,11.0,18.0,69,0.00,,,0.00,weatherlink.com 1.10,2013-02-01 02:25:00,
2013-01-31 20:40:00,16.5,7.0,30.43,NW,317,18.0,20.0,66,0.00,,,0.00,weatherlink.com 1.10,2013-02-01 02:40:00,
2013-01-31 20:55:00,15.6,6.0,30.44,NW,312,12.0,19.0,65,0.00,,,0.00,weatherlink.com 1.10,2013-02-01 02:55:00,
2013-01-31 21:10:00,14.9,6.0,30.45,NNW,333,10.0,18.0,67,0.00,,,0.00,weatherlink.com 1.10,2013-02-01 03:10:00,
2013-01-31 21:25:00,14.3,5.0,30.47,NNW,328,13.0,19.0,67,0.00,,,0.00,weatherlink.com 1.10,2013-02-01 03:25:00,
2013-01-31 21:41:00,13.4,4.0,30.46,WNW,291,8.0,18.0,67,0.00,,,0.00,weatherlink.com 1.10,2013-02-01 03:41:00,
2013-01-31 21:56:00,12.6,4.0,30.46,NNW,336,12.0,18.0,68,0.00,,,0.00,weatherlink.com 1.10,2013-02-01 03:56:00,
2013-01-31 22:11:00,11.9,3.0,30.47,NW,307,13.0,17.0,68,0.00,,,0.00,weatherlink.com 1.10,2013-02-01 04:11:00,
2013-01-31 22:26:00,11.1,3.0,30.48,NW,310,10.0,14.0,70,0.00,,,0.00,weatherlink.com 1.10,2013-02-01 04:26:00,
2013-01-31 22:41:00,11.1,3.0,30.49,NW,317,15.0,16.0,70,0.00,,,0.00,weatherlink.com 1.10,2013-02-01 04:41:00,
2013-01-31 22:56:00,10.9,3.0,30.49,NW,311,9.0,14.0,71,0.00,,,0.00,weatherlink.com 1.10,2013-02-01 04:56:00,
2013-01-31 23:11:00,10.8,3.0,30.50,NW,309,6.0,11.0,72,0.00,,,0.00,weatherlink.com 1.10,2013-02-01 05:11:00,
2013-01-31 23:26:00,10.3,3.0,30.49,NW,324,8.0,12.0,73,0.00,,,0.00,weatherlink.com 1.10,2013-02-01 05:26:00,
2013-01-31 23:41:00,10.2,3.0,30.49,NW,321,5.0,10.0,74,0.00,,,0.00,weatherlink.com 1.10,2013-02-01 05:41:00,
2013-01-31 23:56:00,9.9,4.0,30.49,NW,319,5.0,8.0,75,0.00,,,0.00,weatherlink.com 1.10,2013-02-01 05:56:00,